DateTimeUTC,F1_A11,F1_S11,BsB_S11,BsG_S11,BsR_S11,BbsB_S11,BbsG_S11,BbsR_S11,BaB_A11,BaG_A11,BaR_A11,Tu_S11,T_S11,Uu_S11,U_S11,P_S11,T1_A11
2021-01-30T16:00:00Z,00000200,21000000,,,,,,,-000.13,0000.42,0000.64,16.1,23.2,,00.0,0635.7,30.9
2021-01-30T16:01:00Z,00000200,21000000,,,,,,,0000.06,-000.38,-000.20,16.0,23.2,,00.0,0635.7,30.9
2021-01-30T16:02:00Z,00000200,21000000,,,,,,,0000.84,0000.55,0000.63,16.0,23.2,,00.0,0635.7,30.9
2021-01-30T16:03:00Z,00000200,61000000,,,,,,,0000.14,0000.51,0000.18,16.0,23.2,,00.0,0635.7,30.9
2021-01-30T16:04:00Z,00000200,41000000,0000.99,0000.27,0000.05,0000.19,0000.13,0000.01,0000.14,0000.26,0000.23,16.3,23.0,,00.0,0636.4,30.9
2021-01-30T16:05:00Z,00000200,01000000,0000.54,0000.22,-000.25,0000.28,-000.19,0000.12,0000.46,0000.10,0000.18,16.4,23.0,,00.0,0636.5,30.9
2021-01-30T16:06:00Z,00000200,01000000,0000.04,0000.11,0000.03,-000.01,0000.13,0000.10,0000.00,0000.30,-000.26,16.4,23.0,,00.0,0636.5,30.9
2021-01-30T16:07:00Z,00000200,01000000,0000.47,-000.08,-000.03,-000.06,0000.08,0000.20,0000.38,0000.28,0000.09,16.4,23.0,,00.0,0636.5,30.9
2021-01-30T16:08:00Z,00000200,01000000,0000.10,0000.44,-000.15,-000.20,0000.16,0000.18,0000.38,0000.48,0000.14,16.4,23.0,,00.0,0636.4,30.9
2021-01-30T16:09:00Z,00000200,01000000,0000.15,0000.53,-000.07,-000.07,-000.02,0000.10,-000.35,-000.31,0000.07,16.3,23.0,,00.0,0636.4,30.9
2021-01-30T16:10:00Z,00000200,01000000,0000.62,0000.22,-000.07,0000.31,0000.10,-000.04,0000.69,0000.21,-000.07,16.3,22.9,,00.0,0636.4,30.9
2021-01-30T16:11:00Z,00000200,01000000,0000.48,0000.14,-000.05,-000.20,-000.10,-000.06,0000.28,-000.06,0000.43,16.2,22.9,,00.0,0636.4,30.9
2021-01-30T16:12:00Z,00000200,01000000,0000.65,0000.20,-000.09,0000.25,-000.11,0000.24,-000.11,0000.44,0000.29,16.2,22.9,,00.0,0636.4,30.9
2021-01-30T16:13:00Z,00000200,01000000,0000.45,0000.14,0000.14,-000.02,-000.06,0000.13,0000.22,-000.01,-000.09,16.1,22.8,,00.0,0636.4,30.9
2021-01-30T16:14:00Z,00000200,01000000,0000.14,0000.35,-000.02,0000.25,0000.02,0000.52,0000.20,0000.36,0000.22,16.1,22.8,,00.0,0636.4,30.9
2021-01-30T16:15:00Z,00000200,01000000,0000.20,-000.02,0000.09,-000.28,-000.21,0000.31,0000.23,-000.10,-000.09,16.0,22.8,,00.0,0636.4,30.9
2021-01-30T16:16:00Z,00000200,01000000,0000.73,0000.26,0000.03,0000.27,0000.02,0000.15,-000.08,-000.08,0000.34,16.0,22.7,,00.0,0636.3,30.8
2021-01-30T16:17:00Z,00000200,01000000,0000.63,-000.24,0000.24,-000.03,-000.06,0000.06,0000.66,0000.44,0000.20,16.0,22.7,,00.0,0636.4,30.8
2021-01-30T16:18:00Z,00000200,01000000,0000.70,0000.07,0000.06,0000.08,0000.01,0000.14,0000.35,0000.64,0000.43,16.0,22.7,,00.0,0636.3,30.9
2021-01-30T16:19:00Z,00000200,01000000,0000.43,0000.38,0000.03,0000.08,0000.18,0000.14,0000.06,-000.14,-000.05,16.1,22.7,,00.0,0636.3,30.9
2021-01-30T16:20:00Z,00000200,01000000,0000.57,0000.42,-000.06,0000.08,-000.15,0000.12,0000.35,0000.30,0000.24,16.2,22.8,,00.0,0636.3,30.9
2021-01-30T16:21:00Z,00000200,01000000,0000.88,0000.17,0000.21,0000.27,-000.03,0000.36,-000.02,0000.58,0000.31,16.2,22.8,,00.0,0636.3,30.9
2021-01-30T16:22:00Z,00000200,01000000,0000.60,0000.23,-000.02,-000.01,0000.12,0000.11,-000.10,0000.02,0000.03,16.3,22.9,,00.0,0636.3,30.9
2021-01-30T16:23:00Z,00000200,01000000,0000.72,0000.25,0000.04,0000.08,0000.19,0000.23,0000.40,-000.03,0000.07,16.3,22.9,,00.0,0636.3,30.9
2021-01-30T16:24:00Z,00000200,01000000,0001.08,-000.04,0000.08,-000.04,-000.06,0000.22,0000.51,0000.46,-000.08,16.3,22.8,,00.0,0636.3,30.9
2021-01-30T16:25:00Z,00000200,01000000,0000.48,0000.18,0000.07,0000.41,0000.03,0000.18,0000.06,-000.09,0000.07,16.2,22.8,,00.0,0636.3,30.9
2021-01-30T16:26:00Z,00000200,01000000,0000.42,0000.32,0000.16,0000.43,-000.12,0000.19,0000.10,0000.31,-000.15,16.2,22.8,,00.0,0636.3,30.9
2021-01-30T16:27:00Z,00000200,01000000,-000.32,0000.43,0000.40,-000.16,0000.02,0000.14,0000.56,-000.20,0000.49,16.1,22.8,,00.0,0636.3,30.9
2021-01-30T16:28:00Z,00000200,01000000,-000.05,0000.33,-000.16,0000.41,0000.01,0000.09,-000.38,0000.34,-000.04,16.1,22.7,,00.0,0636.2,30.9
2021-01-30T16:29:00Z,00000200,01000000,-000.50,0000.27,-000.12,0000.30,-000.02,0000.20,0000.41,0000.02,0000.12,16.1,22.7,,00.0,0636.2,30.9
2021-01-30T16:30:00Z,00000200,01000000,0000.49,0000.06,0000.19,0000.06,0000.28,0000.16,0000.05,-000.07,-000.26,16.0,22.7,,00.0,0636.2,30.9
2021-01-30T16:31:00Z,00000200,01000000,0000.08,0000.28,-000.02,-000.07,-000.01,0000.05,0000.31,0000.30,0000.64,15.9,22.7,,00.0,0636.2,30.8
2021-01-30T16:32:00Z,00000200,01000000,0000.29,0000.49,-000.11,0000.12,0000.08,0000.18,0000.63,0000.24,0000.09,16.0,22.6,,00.0,0636.2,30.8
2021-01-30T16:33:00Z,00000200,01000000,0001.10,0000.14,-000.31,-000.20,-000.22,0000.26,-000.33,0000.23,0000.52,16.0,22.7,,00.0,0636.2,30.9
2021-01-30T16:34:00Z,00000200,01000000,0000.58,0000.41,-000.18,0000.33,-000.03,0000.01,0000.54,0000.65,0000.31,16.1,22.6,,00.0,0636.1,30.9
2021-01-30T16:35:00Z,00000200,01000000,0001.18,0000.37,-000.09,0000.24,-000.05,-000.01,0000.08,-000.15,-000.50,16.1,22.7,,00.0,0636.2,30.9
2021-01-30T16:36:00Z,00000200,01000000,0000.76,0000.42,0000.17,0000.20,-000.10,0000.08,0000.29,0000.07,0000.28,16.2,22.7,,00.0,0636.2,30.9
2021-01-30T16:37:00Z,00000200,01000000,0000.73,0000.35,0000.18,-000.18,0000.07,0000.06,0000.04,0000.30,0000.29,16.3,22.8,,00.0,0636.2,30.9
2021-01-30T16:38:00Z,00000200,01000000,-000.25,0000.06,-000.15,-000.11,0000.03,0000.19,0000.38,0000.47,0000.21,16.3,22.8,,00.0,0636.2,30.9
2021-01-30T16:39:00Z,00000200,01000000,0000.21,-000.01,0000.29,-000.26,0000.14,0000.19,0000.17,0000.42,0000.48,16.4,22.8,,00.0,0636.2,30.9
2021-01-30T16:40:00Z,00000200,01000000,0000.00,0000.42,0000.17,0000.25,0000.08,0000.23,0000.08,-000.18,-000.38,16.5,22.9,,00.0,0636.2,30.9
2021-01-30T16:41:00Z,00000200,01000000,-000.05,0000.17,-000.06,-000.22,0000.30,0000.05,0000.31,0000.55,0000.51,16.5,22.9,,00.0,0636.2,30.9
2021-01-30T16:42:00Z,00000200,01000000,0001.17,0000.11,0000.05,-000.35,0000.13,0000.16,-000.13,0000.16,-000.16,16.6,23.0,,00.0,0636.3,30.9
2021-01-30T16:43:00Z,00000200,01000000,0000.25,0000.15,0000.22,0000.08,0000.17,0000.25,-000.14,-000.30,0000.41,16.6,23.0,,00.0,0636.3,30.9
2021-01-30T16:44:00Z,00000200,01000000,0000.04,0000.10,0000.24,-000.27,-000.11,0000.20,0000.55,0000.23,-000.16,16.6,23.0,,00.0,0636.3,30.9
2021-01-30T16:45:00Z,00000200,01000000,0000.94,-000.01,-000.23,-000.29,0000.03,0000.04,-000.02,0000.09,0000.05,16.6,23.0,,00.0,0636.3,30.9
2021-01-30T16:46:00Z,00000200,01000000,0000.36,0000.22,0000.23,0000.10,0000.34,0000.27,0000.02,-000.53,-000.37,16.6,23.0,,00.0,0636.3,30.9
2021-01-30T16:47:00Z,00000200,01000000,-000.01,0000.42,-000.38,-000.44,-000.12,0000.01,0000.12,0000.56,0000.46,16.5,23.0,,00.0,0636.3,30.9
2021-01-30T16:48:00Z,00000200,01000000,0000.18,0000.08,0000.06,-000.01,-000.11,0000.10,0000.46,0000.75,-000.06,16.6,23.0,,00.0,0636.3,30.9
2021-01-30T16:49:00Z,00000200,01000000,0001.00,0000.10,0000.15,-000.17,-000.01,0000.26,0000.36,-000.47,0000.49,16.6,23.0,,00.0,0636.3,30.9
2021-01-30T16:50:00Z,00000200,01000000,0000.28,0000.12,0000.00,-000.22,-000.16,0000.36,-000.14,0000.47,-000.39,16.7,23.0,,00.0,0636.3,30.9
2021-01-30T16:51:00Z,00000200,01000000,0000.16,0000.14,0000.00,-000.13,0000.13,0000.25,-000.07,-000.16,0000.51,16.7,23.1,,00.0,0636.3,30.9
2021-01-30T16:52:00Z,00000200,01000000,0000.97,0000.24,0000.10,0000.22,-000.24,0000.05,0000.48,0000.22,-000.15,16.7,23.1,,00.0,0636.3,30.9
2021-01-30T16:53:00Z,00000200,01000000,0000.29,0000.22,-000.07,0000.38,0000.06,0000.23,-000.22,0000.06,0000.12,16.7,23.1,,00.0,0636.3,30.9
2021-01-30T16:54:00Z,00000200,01000000,0000.61,0000.04,-000.09,0000.22,-000.14,0000.26,0000.15,-000.03,-000.09,16.6,23.1,,00.0,0636.3,30.9
2021-01-30T16:55:00Z,00000200,01000000,0000.24,-000.23,-000.05,-000.27,-000.16,-000.02,0000.05,0000.46,0000.20,16.6,23.0,,00.0,0636.3,30.9
2021-01-30T16:56:00Z,00000200,01000000,0000.55,0000.44,-000.20,0000.10,0000.11,0000.20,0000.24,-000.41,-000.13,16.5,23.0,,00.0,0636.2,30.9
2021-01-30T16:57:00Z,00000200,41000000,,,,,,,-001.34,-000.66,-000.72,16.5,23.0,,00.0,0636.2,30.9
2021-01-30T16:58:00Z,00000200,61000000,,,,,,,0000.58,0000.23,0000.51,16.0,23.1,,00.0,0635.3,30.9
2021-01-30T16:59:00Z,00000200,21000000,,,,,,,0000.25,0000.18,0000.04,16.0,23.2,,00.0,0635.3,30.9
